This is the latest recevied weather packets stored in our database for station/object K7SPS-10. If no packets are shown the sender has not sent any weather packets the latest 10 day(s).
| Time | Temp. | Humidity | Pressure | Rain* | Wind** | Luminosity | Snow |
|---|---|---|---|---|---|---|---|
| 1777635458 | 4.44° C | 84% | 1020.6 hPa | 0 mm | - | 0 W/m² | - |
| 1777635155 | 3.89° C | 85% | 1020.5 hPa | 0 mm | - | 0 W/m² | - |
| 1777634851 | 3.89° C | 86% | 1020.6 hPa | 0 mm | - | 0 W/m² | - |
| 1777634548 | 3.89° C | 86% | 1020.7 hPa | 0 mm | - | 0 W/m² | - |
| 1777634245 | 3.89° C | 87% | 1020.5 hPa | 0 mm | - | 0 W/m² | - |
| 1777633941 | 3.89° C | 86% | 1020.4 hPa | 0 mm | - | 0 W/m² | - |
| 1777633639 | 3.89° C | 86% | 1020.5 hPa | 0 mm | - | 0 W/m² | - |
| 1777633337 | 4.44° C | 83% | 1020.4 hPa | 0 mm | - | 0 W/m² | - |
| 1777633034 | 4.44° C | 87% | 1020.1 hPa | 0 mm | - | 0 W/m² | - |
| 1777632730 | 4.44° C | 88% | 1020.2 hPa | 0 mm | - | 0 W/m² | - |
| 1777632426 | 3.89° C | 87% | 1020.2 hPa | 0 mm | - | 0 W/m² | - |
| 1777632124 | 3.89° C | 87% | 1020 hPa | 0 mm | - | 0 W/m² | - |
| 1777631821 | 3.89° C | 86% | 1020.2 hPa | 0 mm | - | 0 W/m² | - |
| 1777631520 | 4.44° C | 86% | 1020.2 hPa | 0 mm | - | 0 W/m² | - |
| 1777631216 | 4.44° C | 85% | 1020.4 hPa | 0 mm | - | 0 W/m² | - |
| 1777630913 | 5° C | 85% | 1020.2 hPa | 0 mm | - | 0 W/m² | - |
| 1777630608 | 5° C | 84% | 1020.5 hPa | 0 mm | - | 0 W/m² | - |
| 1777630305 | 5.56° C | 83% | 1020 hPa | 0 mm | - | 0 W/m² | - |
| 1777630004 | 5.56° C | 83% | 1020.4 hPa | 0 mm | - | 0 W/m² | - |
| 1777629701 | 5.56° C | 82% | 1020.4 hPa | 0 mm | - | 0 W/m² | - |
| 1777629397 | 6.11° C | 82% | 1020 hPa | 0 mm | - | 0 W/m² | - |
| 1777629093 | 5.56° C | 80% | 1020.1 hPa | 0 mm | - | 0 W/m² | - |
| 1777628790 | 6.67° C | 81% | 1020.2 hPa | 0 mm | - | 0 W/m² | - |
| 1777628486 | 6.11° C | 82% | 1020.4 hPa | 0 mm | - | 0 W/m² | - |
| 1777628182 | 6.11° C | 82% | 1020.2 hPa | 0 mm | - | 0 W/m² | - |
* Rain latest hour (hover to see other rain measurements)
** Current wind speed in m/s (hover to see current wind gust speed)